DW4362 Weather Reports


time (UTC)temp
F
wind
direction
speed
knots
gust
knots
rain 1hr
in
rain 24hr
in
rain mn
in
humidity
%
barometer
mb
20260831080209 74 255 0.0 0.0 0.00 0.02 0.00 95 1015.4
20260831073210 74 256 0.0 0.0 0.00 0.02 0.00 95 1015.4
20260831063209 75 256 0.0 0.0 0.00 0.02 0.00 95 1015.8
20260831060208 75 256 0.0 0.0 0.00 0.02 0.00 95 1015.8
20260831050208 75 256 0.0 0.0 0.00 0.02 0.00 95 1016.0
20260831043208 75 255 0.0 0.0 0.00 0.02 0.02 95 1016.1
20260831040208 76 256 0.0 0.0 0.00 0.02 0.02 95 1016.3
20260831030208 76 256 0.0 0.0 0.00 0.02 0.02 95 1016.3
20260831010207 78 256 0.0 0.0 0.00 0.02 0.02 91 1015.4
20260830233207 81 256 0.0 0.0 0.00 0.02 0.02 87 1015.1
20260830230207 81 257 0.0 0.0 0.00 0.02 0.02 86 1015.1
20260830223207 81 75 0.0 0.0 0.00 0.02 0.02 85 1015.1
20260830213207 82 23 0.0 0.0 0.00 0.02 0.02 82 1015.2
20260830210207 84 317 4.3 4.3 0.00 0.02 0.02 75 1015.3
20260830203207 90 278 0.0 2.6 0.00 0.02 0.02 68 1015.5
20260830200207 90 195 1.7 2.6 0.00 0.02 0.02 69 1015.6
20260830193207 89 212 0.0 1.7 0.00 0.02 0.02 71 1015.8
20260830190206 85 200 0.0 0.0 0.02 0.02 0.02 85 1016.3
20260830180207 88 186 0.0 0.0 0.00 0.00 0.00 74 1017.0
20260830173206 89 264 0.0 0.0 0.00 0.00 0.00 71 1017.2
20260830163206 88 222 0.0 4.3 0.00 0.00 0.00 73 1017.7
20260830160206 87 248 0.0 0.0 0.00 0.00 0.00 74 1018.1
20260830153206 88 129 0.0 1.7 0.00 0.00 0.00 73 1017.9
20260830150206 86 259 1.7 1.7 0.00 0.00 0.00 78 1017.6
20260830143206 84 225 0.0 0.0 0.00 0.00 0.00 83 1017.7
20260830140206 81 191 0.0 0.0 0.00 0.00 0.00 89 1017.7
20260830133207 77 180 4.3 4.3 0.00 0.01 0.00 94 1017.4
20260830130206 75 354 0.0 1.7 0.00 0.01 0.00 94 1017.6
20260830123206 73 232 0.0 0.0 0.00 0.01 0.00 94 1017.2
20260830120206 73 257 0.0 0.0 0.00 0.01 0.00 95 1016.9
20260830113205 72 161 0.0 0.0 0.00 0.01 0.00 95 1016.6
20260830110205 72 162 0.0 0.0 0.00 0.01 0.00 95 1016.4
20260830103205 73 189 0.0 0.0 0.00 0.01 0.00 95 1016.2
20260830100205 73 216 0.0 0.0 0.00 0.01 0.00 95 1015.9
20260830093205 73 217 0.0 0.0 0.00 0.01 0.00 95 1015.6
20260830090204 73 198 0.0 0.0 0.00 0.01 0.00 95 1015.5
20260830083204 72 198 0.0 0.0 0.00 0.01 0.00 95 1015.6